パンスターズ彗星

C/2020 U4 ( PanSTARRS )

English version
Home page
Updated on June 1, 2021

---------------------------------------------------------------------

・ プロフィール

発見日 2020年10月22日
発見光度 20.2等
発見者 Pan-STARRS 1 telescope (Haleakala)

・ 写真集

・ 軌道要素

Epoch 2022 Apr. 11.0 TT = JDT 2459680.5
T 2022 Apr. 7.99536 TT                                  Rudenko
q   5.3537111            (2000.0)            P               Q
z  -0.0002500      Peri.   69.53462     +0.61568148     +0.76367524
 +/-0.0000036      Node   120.01370     +0.61317346     -0.61914011
e   1.0013382      Incl.  167.03583     +0.49492891     -0.18293620
From 172 observations 2019 Nov. 9-2021 Apr. 5, mean residual 0".5.

・ 光度変化

        m1 = -1.0 + 5 logΔ + 20.0 log r

---------------------------------------------------------------------

軌道要素はM.P.E.C. 2021-L04に掲載されたものです。
光度グラフはComet for Windowsで作成したものです。

---------------------------------------------------------------------

Copyright(C) Seiichi Yoshida (comet@aerith.net). All rights reserved.